TimeCST,TemperatureF,Dew PointF,Humidity,Sea Level PressureIn,VisibilityMPH,Wind Direction,Wind SpeedMPH,Gust SpeedMPH,PrecipitationIn,Events,Conditions,WindDirDegrees,DateUTC
12:15 AM,26.6,26.6,100,30.09,3.0,Calm,Calm,-,N/A,,Clear,0,2012-11-21 06:15:00
12:35 AM,28.4,28.4,100,30.08,0.2,Calm,Calm,-,N/A,Fog,Light Freezing Fog,0,2012-11-21 06:35:00
12:55 AM,28.4,28.4,100,30.09,0.2,Calm,Calm,-,N/A,Fog,Light Freezing Fog,0,2012-11-21 06:55:00
1:15 AM,26.6,26.6,100,30.09,0.2,Calm,Calm,-,N/A,Fog,Light Freezing Fog,0,2012-11-21 07:15:00
1:35 AM,26.6,26.6,100,30.08,0.2,Calm,Calm,-,N/A,Fog,Light Freezing Fog,0,2012-11-21 07:35:00
1:55 AM,26.6,26.6,100,30.07,0.2,Calm,Calm,-,N/A,Fog,Light Freezing Fog,0,2012-11-21 07:55:00
2:15 AM,26.6,26.6,100,30.07,1.0,Calm,Calm,-,N/A,,Mostly Cloudy,0,2012-11-21 08:15:00
2:35 AM,26.6,26.6,100,30.07,0.2,Calm,Calm,-,N/A,Fog,Light Freezing Fog,0,2012-11-21 08:35:00
2:55 AM,24.8,24.8,100,30.06,2.5,Calm,Calm,-,N/A,,Scattered Clouds,0,2012-11-21 08:55:00
3:15 AM,24.8,24.8,100,30.06,0.2,Calm,Calm,-,N/A,Fog,Light Freezing Fog,0,2012-11-21 09:15:00
3:35 AM,26.6,26.6,100,30.06,0.2,Calm,Calm,-,N/A,Fog,Light Freezing Fog,0,2012-11-21 09:35:00
3:55 AM,24.8,24.8,100,30.06,0.2,Calm,Calm,-,N/A,Fog,Light Freezing Fog,0,2012-11-21 09:55:00
4:15 AM,26.6,26.6,100,30.06,1.2,Calm,Calm,-,N/A,,Scattered Clouds,0,2012-11-21 10:15:00
4:35 AM,28.4,28.4,100,30.06,1.2,Calm,Calm,-,N/A,,Mist,0,2012-11-21 10:35:00
5:15 AM,30.2,30.2,100,30.05,0.8,Calm,Calm,-,N/A,,Mist,0,2012-11-21 11:15:00
5:35 AM,30.2,30.2,100,30.04,1.0,Calm,Calm,-,N/A,,Mist,0,2012-11-21 11:35:00
5:55 AM,30.2,30.2,100,30.04,0.8,Calm,Calm,-,N/A,,Mist,0,2012-11-21 11:55:00
6:15 AM,32.0,32.0,100,30.04,0.5,Calm,Calm,-,N/A,Fog,Light Freezing Fog,0,2012-11-21 12:15:00
6:35 AM,30.2,30.2,100,30.03,0.5,SSE,3.5,-,N/A,Fog,Light Freezing Fog,160,2012-11-21 12:35:00
6:55 AM,32.0,32.0,100,30.02,0.5,Calm,Calm,-,N/A,Fog,Fog,0,2012-11-21 12:55:00
7:15 AM,32.0,32.0,100,30.02,0.5,SSE,3.5,-,N/A,Fog,Fog,160,2012-11-21 13:15:00
7:35 AM,32.0,32.0,100,30.03,0.2,South,3.5,-,N/A,Fog,Fog,180,2012-11-21 13:35:00
7:55 AM,32.0,32.0,100,30.02,0.5,South,3.5,-,N/A,Fog,Fog,180,2012-11-21 13:55:00
8:15 AM,32.0,32.0,100,30.01,1.2,South,4.6,-,N/A,,Scattered Clouds,170,2012-11-21 14:15:00
8:35 AM,35.6,35.6,100,30.01,1.8,South,3.5,-,N/A,,Mist,180,2012-11-21 14:35:00
8:55 AM,37.4,37.4,100,30.00,3.0,SSW,3.5,-,N/A,,Clear,200,2012-11-21 14:55:00
9:15 AM,41.0,41.0,100,30.00,5.0,SSW,6.9,-,N/A,,Clear,200,2012-11-21 15:15:00
9:35 AM,41.0,39.2,93,29.99,7.0,SSW,4.6,-,N/A,,Clear,200,2012-11-21 15:35:00
9:55 AM,42.8,39.2,87,29.99,10.0,SSW,6.9,-,N/A,,Clear,200,2012-11-21 15:55:00
10:15 AM,44.6,35.6,71,29.97,10.0,South,6.9,-,N/A,,Clear,190,2012-11-21 16:15:00
10:35 AM,46.4,35.6,66,29.97,10.0,SW,6.9,-,N/A,,Clear,220,2012-11-21 16:35:00
10:55 AM,46.4,35.6,66,29.96,10.0,SW,8.1,-,N/A,,Clear,230,2012-11-21 16:55:00
11:15 AM,50.0,35.6,58,29.95,10.0,SW,10.4,-,N/A,,Clear,220,2012-11-21 17:15:00
11:35 AM,50.0,35.6,58,29.94,10.0,SW,8.1,-,N/A,,Clear,230,2012-11-21 17:35:00
11:55 AM,50.0,33.8,54,29.94,10.0,SW,8.1,17.3,N/A,,Clear,230,2012-11-21 17:55:00
12:15 PM,51.8,33.8,50,29.93,10.0,SW,11.5,-,N/A,,Clear,220,2012-11-21 18:15:00
12:35 PM,51.8,33.8,50,29.92,10.0,SSW,8.1,16.1,N/A,,Clear,200,2012-11-21 18:35:00
12:55 PM,51.8,33.8,50,29.91,10.0,SW,12.7,17.3,N/A,,Clear,230,2012-11-21 18:55:00
1:15 PM,50.0,33.8,54,29.91,10.0,SW,10.4,-,N/A,,Clear,220,2012-11-21 19:15:00
1:35 PM,50.0,33.8,54,29.91,10.0,WSW,10.4,-,N/A,,Clear,240,2012-11-21 19:35:00
1:55 PM,50.0,35.6,58,29.91,10.0,SW,8.1,-,N/A,,Clear,230,2012-11-21 19:55:00
2:15 PM,50.0,35.6,58,29.91,10.0,WSW,5.8,-,N/A,,Clear,240,2012-11-21 20:15:00
2:35 PM,50.0,35.6,58,29.91,10.0,SSW,4.6,-,N/A,,Clear,200,2012-11-21 20:35:00
2:55 PM,50.0,35.6,58,29.91,10.0,SSW,4.6,-,N/A,,Clear,210,2012-11-21 20:55:00
3:15 PM,48.2,35.6,62,29.91,10.0,SSW,4.6,-,N/A,,Clear,210,2012-11-21 21:15:00
3:35 PM,48.2,35.6,62,29.91,10.0,SW,5.8,-,N/A,,Clear,220,2012-11-21 21:35:00
3:55 PM,46.4,35.6,66,29.91,10.0,Calm,Calm,-,N/A,,Clear,0,2012-11-21 21:55:00
4:15 PM,46.4,35.6,66,29.91,10.0,Calm,Calm,-,N/A,,Clear,0,2012-11-21 22:15:00
4:35 PM,46.4,35.6,66,29.90,10.0,South,3.5,-,N/A,,Clear,190,2012-11-21 22:35:00
4:55 PM,44.6,35.6,71,29.90,10.0,South,4.6,-,N/A,,Clear,180,2012-11-21 22:55:00
5:15 PM,44.6,35.6,71,29.90,10.0,South,4.6,-,N/A,,Clear,180,2012-11-21 23:15:00
5:35 PM,44.6,35.6,71,29.90,10.0,South,4.6,-,N/A,,Clear,190,2012-11-21 23:35:00
5:55 PM,42.8,35.6,76,29.89,10.0,South,3.5,-,N/A,,Clear,180,2012-11-21 23:55:00
6:15 PM,41.0,35.6,81,29.89,10.0,Calm,Calm,-,N/A,,Clear,0,2012-11-22 00:15:00
6:35 PM,39.2,33.8,81,29.88,10.0,Calm,Calm,-,N/A,,Clear,0,2012-11-22 00:35:00
6:55 PM,37.4,35.6,93,29.88,10.0,Calm,Calm,-,N/A,,Clear,0,2012-11-22 00:55:00
7:15 PM,35.6,35.6,100,29.88,7.0,Calm,Calm,-,N/A,,Clear,0,2012-11-22 01:15:00
7:35 PM,37.4,37.4,100,29.88,10.0,Calm,Calm,-,N/A,,Clear,0,2012-11-22 01:35:00
7:55 PM,35.6,35.6,100,29.88,7.0,Calm,Calm,-,N/A,,Clear,0,2012-11-22 01:55:00
8:15 PM,37.4,37.4,100,29.87,10.0,Calm,Calm,-,N/A,,Clear,0,2012-11-22 02:15:00
8:35 PM,35.6,35.6,100,29.86,5.0,Calm,Calm,-,N/A,,Clear,0,2012-11-22 02:35:00
8:55 PM,33.8,33.8,100,29.86,3.0,Calm,Calm,-,N/A,,Clear,0,2012-11-22 02:55:00
9:15 PM,33.8,33.8,100,29.85,7.0,Calm,Calm,-,N/A,,Clear,0,2012-11-22 03:15:00
9:35 PM,32.0,32.0,100,29.85,4.0,Calm,Calm,-,N/A,,Clear,0,2012-11-22 03:35:00
9:55 PM,33.8,33.8,100,29.84,4.0,Calm,Calm,-,N/A,,Clear,0,2012-11-22 03:55:00
10:15 PM,35.6,35.6,100,29.84,7.0,South,4.6,-,N/A,,Clear,190,2012-11-22 04:15:00
10:35 PM,41.0,41.0,100,29.84,10.0,South,4.6,-,N/A,,Clear,190,2012-11-22 04:35:00
10:55 PM,42.8,41.0,93,29.84,10.0,South,4.6,-,N/A,,Clear,190,2012-11-22 04:55:00
11:15 PM,44.6,41.0,87,29.83,10.0,SSW,5.8,-,N/A,,Clear,210,2012-11-22 05:15:00
11:35 PM,46.4,39.2,76,29.83,10.0,SW,5.8,-,N/A,,Clear,220,2012-11-22 05:35:00
11:55 PM,46.4,39.2,76,29.82,10.0,SSW,8.1,-,N/A,,Clear,210,2012-11-22 05:55:00